Weather History for Twin Falls, ID

Change the Weather History Date:

Wednesday, October 31, 2012

  Actual Average Record
Temperature  
Mean Temperature 59 °F -  
Max Temperature 78 °F 57 °F 78 °F (2012)
Min Temperature 39 °F 33 °F 5 °F (2002)
Degree Days  
Heating Degree Days 6 20  
Month to date heating degree days 416 457  
Since 1 July heating degree days 432 619  
Cooling Degree Days 0 0  
Month to date cooling degree days 5 2  
Year to date cooling degree days 970 680  
Growing Degree Days 10 (Base 50)    
Moisture  
Dew Point 26 °F    
Average Humidity 32    
Maximum Humidity 53    
Minimum Humidity 11    
Precipitation  
Precipitation 0.00 in 0.03 in 0.14 in (1997)
Month to date precipitation 0.46 0.80  
Year to date precipitation 7.38 8.25  
Sea Level Pressure  
Sea Level Pressure 29.88 in    
Wind  
Wind Speed 9 mph (SE)    
Max Wind Speed 22 mph    
Max Gust Speed 28 mph    
Visibility 10 miles    
Events      
T = Trace of Precipitation, MM = Missing Value Source: NWS Daily Summary

Daily Weather History Graph

Daily Weather History Graph

Search for Another Location

Airport:

Trip Planner

Search our weather history database for the weather conditions in past years. The results will help you decide how hot, cold, wet, or windy it might be!

Date:

Astronomy

Oct. 31, 2012 Rise Set
Actual Time 8:10 AM MDT 6:31 PM MDT
Civil Twilight 7:41 AM MDT 7:00 PM MDT
Nautical Twilight 7:08 AM MDT 7:33 PM MDT
Astronomical Twilight 6:35 AM MDT 8:06 PM MDT
Moon 7:43 PM MDT (10/31) 9:57 AM MDT (10/31)
Length of Visible Light 11h 19m
Length of Day
10h 20m
Full, 97% of the Moon is Illuminated
Oct 31
Full
Nov 6
Last Quarter
Nov 13
New
Nov 20
First Quarter
Nov 28
Full

Hourly Weather History & Observations

Time (MDT) Temp. Windchill Dew Point Humidity Pressure Visibility Wind Dir Wind Speed Gust Speed Precip Events Conditions
12:53 AM 55.9 °F - 24.1 °F 29% 29.94 in 10.0 mi South 11.5 mph - N/A   Clear
1:53 AM 55.9 °F - 23.0 °F 28% 29.93 in 10.0 mi South 11.5 mph - N/A   Clear
2:53 AM 52.0 °F - 24.1 °F 34% 29.94 in 10.0 mi South 10.4 mph - N/A   Clear
3:53 AM 54.0 °F - 23.0 °F 30% 29.93 in 10.0 mi Calm Calm - N/A   Clear
4:53 AM 48.0 °F - 24.1 °F 39% 29.93 in 10.0 mi ESE 4.6 mph - N/A   Clear
5:53 AM 42.1 °F 40.2 °F 26.1 °F 53% 29.95 in 10.0 mi ESE 3.5 mph - N/A   Clear
6:53 AM 50.0 °F - 24.1 °F 36% 29.97 in 10.0 mi Calm Calm - N/A   Clear
7:53 AM 48.0 °F - 24.1 °F 39% 29.97 in 10.0 mi West 4.6 mph - N/A   Clear
8:53 AM 44.1 °F 41.5 °F 26.1 °F 49% 30.00 in 10.0 mi East 4.6 mph - N/A   Clear
9:53 AM 51.1 °F - 30.0 °F 44% 29.98 in 10.0 mi ESE 9.2 mph - N/A   Clear
10:53 AM 55.9 °F - 32.0 °F 40% 29.95 in 10.0 mi ENE 8.1 mph - N/A   Clear
11:53 AM 61.0 °F - 35.1 °F 38% 29.94 in 10.0 mi NE 5.8 mph - N/A   Clear
12:53 PM 66.0 °F - 36.0 °F 33% 29.90 in 10.0 mi NNE 6.9 mph - N/A   Clear
1:53 PM 72.0 °F - 33.1 °F 24% 29.85 in 10.0 mi NE 6.9 mph - N/A   Clear
2:53 PM 78.1 °F - 21.0 °F 12% 29.80 in 10.0 mi SSE 17.3 mph 26.5 mph N/A   Clear
3:53 PM 77.0 °F - 19.9 °F 12% 29.77 in 10.0 mi South 15.0 mph 23.0 mph N/A   Clear
4:53 PM 73.9 °F - 23.0 °F 15% 29.79 in 10.0 mi SSE 13.8 mph - N/A   Clear
5:53 PM 70.0 °F - 24.1 °F 18% 29.82 in 10.0 mi South 9.2 mph - N/A   Clear
6:53 PM 63.0 °F - 24.1 °F 23% 29.81 in 10.0 mi SSE 10.4 mph - N/A   Clear
7:53 PM 62.1 °F - 25.0 °F 24% 29.81 in 10.0 mi South 8.1 mph - N/A   Clear
8:53 PM 64.9 °F - 24.1 °F 21% 29.79 in 10.0 mi SSE 12.7 mph - N/A   Clear
10:53 PM 63.0 °F - 25.0 °F 24% 29.77 in 10.0 mi South 19.6 mph - N/A   Clear
11:53 PM 63.0 °F - 23.0 °F 22% 29.75 in 10.0 mi South 15.0 mph - N/A   Clear